Find Starlink 30547

NORAD ID: 58044 Int'l Des: 2023-156 Owner: SPXS Country: US Constellation: starlink operational
LEOCIRCULAR

当前视图

正在加载3D地球...

About Starlink 30547

Starlink 30547 (NORAD 58044) is a starlink constellation satellite (v2 mini) launched Oct 9, 2023 by SPXS of US. It operates in LEO, CIRCULAR orbit with a mass of 730.00 kg.

关于 Starlink 30547

正在加载描述...

即将过境

Passes for default location (London). Set your location on the main map for personalized predictions.

高度历史

Loading altitude history...

两行轨道根数

1 58044U 23156S 26170.37408509 -.00000707 00000-0 -98051-5 0 9994
2 58044 53.1594 54.9427 0001105 86.9437 273.1692 15.34398358150617
Epoch: Jun 19, 2026 • Age: 16 hours

当前状态

高度 462.7 km
速度 7.64 km/s
星下点 16.90°N, 146.17°E
发射日期 Oct 9, 2023
运行时间 2.6 years
类型 internet

技术详情

分类 Payload
质量 730.00 kg
干质量 700.00 kg
总质量 730.00 kg
长度 0.30 m
直径 4.10 m
跨度 29.00 m
形状 Box + pan
制造商 SPXS
平台类型 Starlink V2M
阶段状态 In Orbit
所有者/国家 SPXS/US

Most Searched